GFSGBSN_850_temp_192.txt.gz
Temp
13 13 13 13 13 13 13 13 12 12 13 13 12 12 13 14 14 14 14 14 14 14 14 15 14 14 16 15 18 18 18 18 18 19 19 19 20 20 18 18 19 19 20 21 22 22 23
13 13 13 13 13 13 13 13 12 12 12 13 12 12 13 13 14 13 14 14 14 15 14 14 14 13 13 12 18 18 18 18 18 18 19 19 19 20 19 18 18 20 20 20 21 21 21
13 13 13 13 13 13 13 12 12 12 12 12 13 13 13 13 13 13 13 14 14 15 14 14 13 13 12 17 18 18 18 18 18 18 18 19 19 19 19 16 19 20 18 17 20 21 20
13 13 13 13 13 13 13 12 12 12 12 12 12 13 13 13 13 13 13 14 14 15 15 14 13 14 13 18 18 18 17 17 18 18 18 18 18 19 19 19 18 18 17 16 19 21 21
13 13 13 13 13 13 12 12 12 12 12 12 12 12 12 13 12 12 13 14 15 15 15 14 14 13 14 17 18 17 17 17 17 18 18 18 19 18 18 16 14 16 15 17 18 19 20
12 12 12 12 12 12 12 12 12 12 12 12 12 12 12 12 12 12 13 13 14 15 15 14 13 12 16 17 17 17 17 17 18 18 18 18 18 15 13 13 14 16 16 16 17 18 18
12 12 12 12 12 12 11 11 11 12 11 11 11 11 11 12 11 11 12 13 13 14 14 14 14 13 16 16 17 17 17 16 17 17 15 17 14 13 14 14 16 17 16 16 16 18 19
12 12 12 12 12 12 12 11 11 11 11 11 11 11 11 11 11 11 11 10 9 10 9 13 15 12 14 15 13 16 17 17 16 14 15 14 13 15 16 16 16 16 17 16 16 18 17
12 12 12 12 12 12 12 11 11 11 11 10 10 10 10 11 11 11 11 9 10 10 9 12 14 14 15 15 14 16 16 17 15 14 14 13 15 17 17 16 16 17 17 16 16 16 15
12 11 11 12 12 12 11 11 11 11 11 10 10 10 10 10 10 10 10 10 10 11 7 11 14 15 15 16 15 16 17 17 16 15 15 14 16 17 17 17 17 16 17 17 16 14 13
11 11 11 11 11 11 11 11 10 11 10 10 10 10 9 9 10 10 10 10 10 11 8 16 15 16 16 15 16 17 17 17 15 15 16 15 16 17 17 17 18 16 18 17 16 14 13
11 11 11 12 12 11 11 11 11 10 10 10 10 9 9 9 9 10 9 10 11 7 9 15 15 15 15 15 16 17 17 16 16 15 15 14 17 17 16 17 16 17 17 15 14 13 10
11 11 11 11 11 11 11 11 10 10 10 10 9 8 8 8 9 9 9 10 6 6 13 15 15 15 15 15 15 16 15 14 13 14 13 14 15 17 17 16 16 16 13 11 10 10 11
11 12 11 11 12 11 11 10 10 9 10 9 8 7 7 7 8 8 9 7 7 11 11 15 14 15 15 15 15 16 15 14 14 14 12 12 12 16 16 15 15 15 13 10 11 10 11
12 11 11 11 11 11 10 10 10 10 9 7 7 6 7 7 7 8 8 5 7 9 13 12 13 13 14 15 14 13 15 13 15 15 13 12 13 14 15 14 14 14 13 13 12 11 10
12 12 12 12 10 9 10 10 10 8 7 6 5 5 6 6 7 7 6 6 8 12 11 11 11 12 11 11 12 10 12 14 14 12 12 13 10 14 15 14 15 14 14 11 11 11 11
12 11 11 10 9 9 10 10 7 6 6 4 5 4 4 5 5 6 5 5 9 11 10 11 11 11 11 10 11 10 11 13 12 12 12 11 10 11 13 13 12 11 11 11 12 11 10
11 11 9 8 9 9 10 7 6 5 4 4 4 3 4 4 3 4 4 7 9 9 9 9 10 11 10 10 9 10 10 11 12 12 11 12 9 7 10 12 13 12 12 11 9 10 8
11 9 9 9 8 8 6 5 4 4 4 4 2 3 4 4 3 3 6 7 8 7 8 8 9 10 10 9 8 9 10 11 11 10 9 10 8 7 9 11 11 11 11 11 10 9 8
9 9 8 8 6 5 4 4 3 4 3 4 3 2 3 4 4 5 5 5 5 7 8 9 8 10 9 8 9 8 9 10 11 10 10 10 8 8 7 9 9 8 9 10 9 7 8
8 7 6 5 5 4 3 3 3 3 3 3 3 2 3 2 3 4 5 5 6 6 9 9 8 8 8 7 8 7 8 8 9 10 9 8 7 8 9 9 9 8 8 8 8 8 7
6 5 4 4 3 3 3 3 2 2 2 3 2 2 2 3 4 4 4 4 5 6 7 7 7 7 7 6 7 6 7 7 7 8 8 7 5 6 7 8 8 7 7 8 7 8 8
4 3 3 3 2 2 2 3 3 3 3 3 3 3 5 2 3 3 3 4 5 6 6 7 6 5 6 7 6 6 5 5 5 6 6 6 4 5 5 7 5 4 6 7 8 8 8
3 2 2 1 2 2 3 3 3 3 3 3 3 3 3 1 1 2 4 4 5 4 4 5 4 4 4 4 4 5 4 4 5 5 6 5 5 5 5 5 4 7 9 9 8 8 8
2 2 2 2 2 2 2 2 2 2 2 2 2 3 1 1 2 3 3 3 2 2 2 3 3 4 4 3 3 3 3 4 4 5 5 6 6 4 4 5 6 7 8 8 8 7 7
2 1 1 1 1 1 1 1 1 1 1 1 1 2 2 1 1 3 2 1 0 0 2 3 3 3 2 1 2 2 3 5 5 6 7 6 6 4 3 3 4 7 7 9 7 5 3
1 1 1 1 1 1 2 2 2 1 1 1 1 2 2 1 2 2 1 1 2 1 1 2 3 3 2 1 2 2 2 5 4 5 5 4 4 3 4 3 4 5 6 7 5 5 4
0 -0 -1 0 1 1 1 1 1 1 1 1 0 1 2 1 1 2 2 3 2 2 -1 2 1 1 0 1 2 2 2 3 3 4 4 4 2 1 3 4 4 5 6 4 4 3 4
-1 -1 -1 0 1 1 1 0 0 -0 -0 0 0 1 1 2 1 2 2 2 3 3 2 2 2 2 1 -1 -1 -0 0 1 1 1 4 2 3 3 2 2 1 3 5 5 5 4 5

GFSGBSN_850_temp_195.txt.gz
Temp
13 13 13 13 13 13 13 13 13 13 13 13 13 13 13 13 13 13 14 14 14 14 14 14 14 15 15 14 18 18 18 18 18 18 19 19 19 19 17 17 18 17 18 19 20 20 20
13 13 13 13 13 13 13 13 13 13 13 13 13 13 13 13 13 13 13 14 14 14 14 14 14 14 14 11 18 17 17 18 18 18 18 18 19 19 18 17 16 18 18 18 20 20 19
13 13 13 13 13 13 13 13 13 13 13 13 13 13 13 13 13 13 13 14 14 14 14 15 15 14 13 17 17 17 17 17 17 18 18 18 18 18 18 16 18 18 16 16 18 20 19
13 13 13 13 13 13 13 13 13 12 13 13 13 13 13 13 13 12 13 14 14 14 15 15 15 14 13 17 17 16 16 17 17 17 18 18 18 18 18 18 17 16 16 15 18 18 20
13 13 13 13 13 13 13 13 13 12 13 13 13 13 13 13 12 12 13 14 14 15 15 15 14 14 14 16 16 17 17 17 17 18 18 18 18 18 17 15 13 14 14 16 17 18 19
13 13 13 13 13 13 13 13 13 12 13 12 12 12 12 12 12 12 13 13 14 15 14 14 13 12 16 16 16 16 17 16 17 17 18 18 17 14 12 12 13 15 15 14 14 16 16
12 12 12 12 12 12 12 12 12 12 12 12 12 12 11 11 11 11 12 13 13 14 13 13 14 13 14 15 16 16 17 17 16 16 14 16 14 12 13 13 15 15 14 14 14 15 17
12 12 12 12 12 12 12 12 12 12 12 12 12 11 11 11 11 11 11 11 10 10 8 12 13 11 14 13 11 16 16 16 16 14 14 13 12 13 14 14 14 14 14 14 14 16 16
12 12 12 12 12 12 12 12 11 12 11 11 12 11 11 10 10 11 11 10 11 10 9 11 13 13 15 14 13 15 16 16 15 14 14 12 14 15 14 14 14 14 14 15 15 16 14
12 12 12 12 12 12 12 11 11 11 11 11 11 11 10 10 9 11 10 10 11 10 7 11 13 15 15 15 14 16 16 16 15 14 14 13 14 16 15 14 15 14 15 15 15 15 13
12 12 12 12 12 12 11 11 11 11 11 11 11 10 10 10 10 10 11 11 11 11 8 15 15 15 15 15 15 16 16 16 15 15 15 14 15 16 16 16 17 15 16 16 16 14 12
11 12 12 12 12 11 12 11 11 11 10 10 10 10 10 9 9 10 10 11 11 7 9 13 15 14 14 15 15 16 16 16 16 15 13 13 15 16 14 16 16 16 16 14 10 11 11
11 11 11 12 12 12 12 11 11 11 10 10 10 10 10 9 9 9 9 10 8 7 13 14 14 14 14 14 14 15 14 14 13 13 13 13 14 15 16 15 15 15 13 10 10 10 11
10 11 11 11 11 12 11 12 11 11 11 10 10 10 10 8 8 8 8 8 7 10 10 13 13 13 14 14 15 14 14 13 14 13 11 11 11 15 15 15 14 14 12 10 11 10 10
10 11 12 12 12 12 11 10 10 10 10 10 10 9 8 6 7 7 8 5 6 8 12 11 13 13 13 13 12 12 12 12 11 11 12 11 12 14 15 14 15 14 12 13 11 10 9
9 9 10 12 12 11 11 10 10 10 9 10 9 7 6 5 6 6 6 5 8 10 10 10 11 11 10 10 11 10 11 12 11 11 11 11 9 12 14 14 14 14 13 11 10 10 9
9 8 9 9 10 10 10 10 9 9 9 9 7 5 5 5 5 5 5 4 8 9 9 9 10 10 11 11 10 10 11 12 11 11 12 11 9 10 12 12 11 11 11 11 11 9 9
8 9 9 9 8 10 10 10 9 8 8 7 4 4 4 4 3 2 3 5 8 8 7 8 8 9 10 10 9 10 10 11 11 10 9 10 8 7 9 11 11 11 11 10 8 10 7
8 9 9 8 8 9 9 8 7 8 8 6 4 4 4 3 4 2 3 6 7 7 8 7 8 9 10 9 9 9 9 11 10 10 9 10 7 6 9 9 9 9 10 10 9 8 7
7 9 10 9 8 9 8 7 8 7 8 7 5 2 3 3 2 3 4 5 3 6 7 7 7 8 7 7 8 7 9 10 10 10 10 10 7 7 6 8 8 8 9 9 8 6 7
8 9 10 10 10 8 7 8 8 7 5 6 4 1 2 2 3 4 5 3 3 3 5 7 6 7 7 7 7 7 8 8 9 9 9 8 7 7 8 8 8 8 8 7 7 7 6
10 10 10 10 9 7 7 8 7 5 4 5 2 2 2 3 3 4 3 3 4 3 4 5 6 7 7 5 6 6 6 6 6 7 7 6 6 6 6 7 8 7 7 6 6 6 7
9 9 8 8 8 7 7 6 5 3 3 2 2 2 4 2 2 2 2 3 3 4 4 6 6 6 5 5 5 6 6 6 6 6 5 5 5 4 5 6 6 5 5 6 7 7 7
8 8 8 7 6 5 5 4 3 3 3 2 2 2 1 2 2 2 3 4 4 4 5 4 4 4 5 5 5 5 4 4 4 4 5 5 4 4 5 5 4 7 8 8 6 7 7
6 6 5 4 4 4 3 3 3 2 1 1 1 2 1 1 2 2 3 3 2 2 3 3 3 4 4 4 3 3 2 3 3 4 4 4 5 4 4 4 5 6 7 7 6 6 6
4 3 3 3 3 3 2 1 1 1 2 2 2 2 3 1 1 3 2 2 1 1 1 2 3 3 3 2 2 2 3 4 4 5 6 5 4 4 3 3 3 6 6 6 6 4 4
3 2 2 1 2 2 2 2 1 2 2 2 1 2 3 1 1 3 1 1 2 1 1 2 3 2 2 1 1 1 2 4 3 4 5 3 3 3 3 3 2 3 3 5 4 5 3
1 1 1 1 1 1 1 1 1 1 1 1 1 1 3 2 2 2 3 2 2 2 -0 2 1 0 -0 -1 -0 -0 0 1 1 3 4 3 2 2 3 2 3 1 3 3 3 4 4
0 0 0 0 0 0 0 0 0 0 0 1 1 2 2 3 2 2 3 3 3 4 3 2 2 0 -1 -3 -3 -3 0 -1 0 1 3 2 3 2 1 0 3 3 1 3 3 3 4

GFSGBSN_850_temp_198.txt.gz
Temp
14 13 14 13 13 13 13 13 13 13 13 13 13 13 13 13 13 14 14 14 14 14 14 14 15 15 15 15 17 17 18 18 18 18 18 18 18 18 17 16 17 16 17 18 19 18 18
13 13 13 13 14 14 13 13 13 13 13 13 13 13 13 13 13 14 14 14 14 14 14 15 15 15 15 12 17 17 17 17 17 18 17 18 18 18 17 17 16 17 17 17 18 19 18
13 13 13 13 13 14 14 13 13 13 13 13 13 13 13 13 13 13 14 14 14 14 15 15 15 15 14 17 17 17 16 17 17 17 17 17 18 18 18 16 17 17 16 15 18 18 18
12 13 13 13 13 14 14 14 13 13 13 13 13 13 13 13 13 13 13 14 14 14 15 15 15 15 14 17 16 16 16 17 17 17 18 18 18 18 18 17 17 15 15 14 17 17 19
12 13 13 13 13 13 13 13 13 13 13 13 13 13 12 12 12 13 13 13 14 15 15 15 14 14 14 16 16 16 16 17 17 17 18 18 18 17 17 14 13 12 14 15 15 16 16
12 12 12 13 13 13 13 13 13 13 13 13 13 13 12 12 12 12 13 13 14 15 14 14 13 13 16 15 15 16 16 16 16 16 17 18 17 12 11 12 13 14 14 14 14 15 15
12 12 12 12 13 12 12 12 13 13 13 13 12 12 11 11 12 12 12 13 13 13 13 12 14 13 13 14 14 15 16 16 16 16 14 15 13 12 12 13 15 14 13 12 12 14 15
11 12 12 12 12 12 12 12 12 12 12 12 12 12 11 11 11 11 11 11 10 10 8 12 13 11 13 13 12 15 15 15 15 13 13 12 11 12 14 13 13 13 12 12 12 14 15
12 11 12 12 12 12 12 12 12 12 12 12 11 11 11 11 11 11 11 11 11 10 9 11 12 12 14 13 13 15 15 15 14 13 13 12 14 13 14 13 13 12 12 12 13 14 13
12 11 12 12 12 11 12 12 12 12 12 11 11 11 10 10 10 11 11 12 11 10 7 10 13 14 14 14 14 15 16 16 15 14 13 12 14 14 14 13 12 13 13 13 14 14 12
11 11 11 12 12 12 11 11 12 11 11 11 11 10 10 10 10 11 11 11 11 11 9 14 14 15 15 15 15 15 16 16 14 15 14 14 15 15 15 15 15 14 16 15 15 13 11
10 11 11 11 11 11 11 12 12 11 11 11 11 10 10 10 10 10 10 10 11 9 10 13 14 14 14 14 15 16 16 16 15 14 12 12 14 14 14 15 14 16 15 13 9 10 10
10 11 10 11 11 11 11 11 11 12 11 11 11 10 10 10 10 9 9 9 7 7 12 13 14 13 13 14 14 14 14 14 12 13 12 13 13 14 15 14 14 13 12 10 10 10 12
9 10 10 10 10 11 11 11 11 11 11 11 11 11 10 10 10 9 8 5 6 10 10 13 12 13 13 13 13 12 13 12 12 12 10 11 11 14 15 15 14 13 12 11 11 10 11
9 10 9 10 10 11 11 11 10 10 10 10 10 10 9 10 9 7 7 5 10 9 12 11 12 12 12 12 12 12 12 12 10 10 12 10 11 13 14 14 14 13 12 12 11 10 9
8 9 9 10 10 10 11 10 10 10 10 10 9 9 8 9 6 6 6 10 8 10 10 10 11 12 10 10 11 11 11 11 10 11 11 11 9 11 12 13 13 13 12 11 9 10 10
7 7 7 9 9 9 10 10 10 10 10 9 9 6 6 6 5 5 6 7 8 9 10 10 10 10 10 10 10 10 11 11 11 11 10 9 8 9 11 12 11 11 10 11 10 8 10
6 5 6 7 7 9 9 10 9 10 10 9 7 5 5 5 5 5 5 7 8 8 8 8 8 9 10 10 9 9 9 11 11 11 9 9 7 6 8 10 10 10 10 10 8 9 7
4 5 6 6 7 7 8 8 9 9 8 8 6 4 4 5 6 4 4 5 7 8 7 8 8 9 9 9 9 8 9 10 10 9 8 9 7 5 8 9 8 8 9 9 8 7 6
3 4 5 6 6 7 8 7 8 7 8 8 6 2 3 3 4 6 4 4 4 4 6 7 7 7 6 6 7 7 8 9 9 9 10 9 7 7 6 7 7 7 8 8 8 7 7
3 4 4 5 6 7 7 7 7 7 7 7 5 2 3 2 3 3 4 5 4 4 3 4 3 4 3 3 3 4 7 7 8 9 9 8 6 7 8 8 8 7 7 7 7 7 6
3 4 4 5 6 7 8 7 7 7 7 7 3 2 2 2 4 3 3 4 4 3 3 3 3 3 2 3 5 5 6 6 6 7 7 7 6 6 6 7 7 6 7 7 7 7 7
3 4 5 5 6 7 7 7 7 7 7 6 3 3 5 3 3 3 3 3 3 3 2 3 3 2 3 4 5 5 6 6 6 5 5 5 5 4 4 6 5 4 6 6 7 7 6
4 5 5 5 6 6 7 7 6 6 6 6 5 3 2 2 2 3 3 2 3 2 2 2 3 3 4 4 4 4 4 4 4 4 5 4 4 4 5 5 4 7 6 7 6 6 6
4 4 5 6 6 6 6 6 6 6 7 5 3 3 2 1 1 1 1 1 1 1 2 2 2 3 3 4 3 3 3 3 3 3 4 4 4 4 4 4 6 7 7 6 6 5 6
5 6 6 6 6 5 6 6 5 4 3 3 2 3 2 1 1 1 1 1 1 1 1 0 2 3 3 2 2 2 3 4 4 4 4 3 3 3 4 4 4 5 4 3 4 4 3
7 7 7 6 5 6 5 4 3 2 1 2 1 2 1 -0 0 1 1 1 0 -0 0 1 1 2 2 -0 2 2 2 3 3 3 4 2 3 3 3 3 3 2 2 3 2 3 1
4 5 5 4 4 3 2 2 1 1 1 2 0 0 2 0 0 0 0 0 0 1 1 1 1 0 0 1 1 -0 0 1 1 2 3 3 1 2 3 2 3 2 3 3 2 3 2
2 2 2 2 3 3 2 2 1 1 1 2 1 1 2 2 0 0 1 2 3 4 3 1 2 -0 -0 -2 -2 -3 -1 -2 -2 0 2 1 1 -0 0 -1 2 3 3 4 4 3 2

GFSGBSN_850_temp_201.txt.gz
Temp
13 14 13 14 13 14 14 14 14 14 14 14 14 13 14 14 14 14 14 14 14 14 14 15 16 16 16 15 17 18 17 17 18 18 18 18 18 17 18 17 17 18 18 18 18 19 17
13 13 14 13 13 14 14 13 14 14 14 14 14 13 14 14 14 14 14 14 14 14 14 15 16 16 15 13 17 17 17 17 17 18 18 18 17 18 17 17 17 17 17 18 18 18 17
13 13 13 13 13 13 14 13 13 13 14 14 14 14 13 14 14 14 13 14 15 14 15 15 15 15 15 17 17 16 16 17 17 17 17 18 18 18 18 18 17 17 18 18 19 18 19
12 13 12 13 13 13 13 13 13 13 14 13 13 13 13 13 13 13 13 14 14 15 15 15 15 14 14 16 15 15 16 17 17 17 17 17 18 18 17 17 17 17 16 18 19 18 18
13 12 13 12 12 13 13 13 13 13 13 13 13 13 13 13 13 13 13 14 14 15 14 15 15 13 14 15 15 15 16 16 17 17 17 18 17 16 16 17 17 15 18 16 18 17 18
12 12 13 12 12 12 12 13 13 13 13 13 13 13 12 13 13 12 12 13 15 15 14 15 14 14 15 14 15 15 16 16 16 16 17 17 16 16 14 17 17 17 17 16 17 18 18
12 12 12 12 12 12 12 12 13 13 13 13 12 12 12 12 12 12 12 13 13 13 13 14 15 13 13 14 14 15 14 13 14 15 16 14 16 16 16 15 16 15 15 16 16 17 15
12 12 12 12 12 12 12 12 12 13 13 13 12 12 11 11 12 12 11 11 11 11 9 13 12 11 13 13 13 14 14 14 15 15 13 14 14 15 14 14 14 15 15 16 15 16 15
11 12 12 12 12 12 12 12 12 12 12 12 12 11 11 11 11 11 11 11 11 10 10 12 13 12 13 13 13 15 15 15 14 13 13 14 15 14 14 14 14 14 14 14 15 15 16
11 12 11 12 11 11 12 12 11 11 12 12 11 11 10 10 10 11 11 11 12 11 9 11 13 14 14 13 14 15 15 15 14 15 13 13 14 14 15 14 14 14 15 15 14 15 16
10 11 11 11 11 11 11 12 11 11 11 11 11 11 10 10 10 10 11 11 12 12 11 14 14 14 14 14 14 15 15 15 14 14 15 15 15 15 15 15 14 16 15 15 15 15 13
10 10 10 11 11 11 11 11 11 11 11 11 11 11 10 10 10 10 9 10 11 9 10 13 14 14 14 14 14 15 15 15 15 14 13 14 13 15 16 15 15 15 16 14 12 13 14
10 10 10 10 11 11 11 11 11 11 11 11 10 10 10 9 10 10 9 9 8 8 13 13 13 13 13 14 14 14 14 14 15 14 13 13 14 14 14 15 14 14 15 15 15 14 15
9 10 9 9 9 11 11 11 10 11 11 11 10 10 10 10 9 10 8 6 9 10 12 12 12 13 13 13 13 13 13 13 11 13 12 13 14 14 14 15 15 14 14 14 14 14 15
8 10 10 9 9 10 11 10 10 10 10 10 10 10 9 10 10 9 8 7 11 11 12 12 12 12 12 12 12 12 12 12 12 12 14 11 12 12 13 14 14 13 13 13 13 11 12
7 8 9 9 9 9 10 10 10 10 10 10 10 9 9 10 9 8 8 11 11 12 11 12 13 13 12 12 12 11 12 11 11 11 11 11 12 11 12 13 13 14 14 13 12 11 12
5 6 7 8 9 8 9 9 10 10 10 10 9 8 8 8 7 6 8 9 11 11 11 11 12 13 12 11 11 11 13 11 11 11 10 11 10 11 12 12 12 13 13 12 12 11 11
5 5 6 6 8 8 9 9 10 10 9 9 7 6 6 7 5 5 7 8 9 8 9 9 9 11 11 10 10 11 11 11 11 11 10 10 9 9 11 11 10 11 11 11 10 10 9
3 4 5 5 6 6 8 9 9 9 9 7 6 5 4 5 5 5 6 7 7 8 8 8 8 9 9 9 9 9 10 9 10 10 9 9 9 9 10 9 9 10 10 10 9 8 7
3 2 4 5 5 5 6 7 8 9 8 8 5 2 4 4 4 7 7 5 5 5 7 7 7 8 7 7 7 7 8 9 9 9 10 10 9 8 8 9 9 8 9 9 8 5 7
2 2 2 3 4 4 5 5 6 7 8 8 5 2 4 3 4 4 7 5 5 5 5 5 4 6 6 4 5 4 5 5 7 8 8 8 6 7 8 8 9 8 8 8 7 8 7
2 2 2 3 3 3 4 5 5 6 7 7 5 3 2 3 5 4 5 5 5 5 4 4 4 4 4 4 4 4 3 3 4 6 6 7 4 6 6 7 8 7 8 7 7 8 8
2 2 2 2 3 3 4 4 5 6 6 6 4 4 6 3 4 4 5 5 5 5 2 3 3 3 2 3 3 2 3 3 4 4 4 4 4 5 5 7 6 5 7 7 8 8 8
2 2 2 2 2 2 3 4 4 5 6 6 6 6 4 4 4 4 5 5 5 4 4 1 2 2 2 3 2 2 2 3 3 4 5 4 5 5 5 6 4 8 7 8 7 8 8
1 1 1 2 2 2 3 3 4 4 5 6 6 6 6 2 3 2 3 3 2 1 1 1 0 2 2 1 2 3 3 3 4 4 5 6 5 5 4 5 7 7 7 6 6 7 3
1 1 1 2 2 1 2 4 4 4 5 6 6 6 6 2 1 2 2 2 1 1 1 -0 1 1 1 2 2 3 4 5 5 5 4 4 5 4 4 4 5 7 4 4 4 5 3
1 1 1 1 2 2 2 3 4 5 5 5 5 4 5 0 0 1 1 1 0 1 1 0 1 1 2 2 3 3 4 4 4 5 4 3 3 3 4 4 5 4 4 3 4 5 4
1 3 2 1 2 2 3 3 4 4 5 4 3 3 5 -0 -1 0 1 -0 -0 1 2 -0 1 1 1 2 2 2 3 3 2 4 5 5 4 3 4 3 3 3 4 4 5 4 4
5 5 3 3 3 4 4 3 4 5 4 3 2 2 3 1 -1 0 1 1 1 2 1 -0 2 1 1 1 1 0 1 -0 0 2 3 2 4 3 2 4 2 2 3 3 3 3 2